KF5CFW Weather Reports


Display with metric or nautical units.
time (UTC)temp
F
wind
direction
speed
MPH
gust
MPH
rain 1hr
in
rain 24hr
in
rain mn
in
humidity
%
barometer
mb
20260506143021 55 342 0.0 2.0 0.00 0.00 0.00 40 1013.0
20260506141520 55 20 0.0 1.0 0.00 0.00 0.00 41 1013.4
20260506140025 55 13 0.0 2.0 0.00 0.00 0.00 44 1013.3
20260506134515 56 6 0.0 1.0 0.00 0.00 0.00 47 1012.9
20260506133016 56 338 0.0 1.0 0.00 0.00 0.00 50 1012.8
20260506131515 56 352 0.0 2.0 0.00 0.00 0.00 53 1012.6
20260506130009 56 342 0.0 2.0 0.00 0.00 0.00 57 1012.0
20260506124507 56 1 0.0 1.0 0.00 0.00 0.00 59 1012.2
20260506123005 57 15 0.0 1.0 0.00 0.00 0.00 59 1011.9
20260506121601 57 5 0.0 2.0 0.00 0.00 0.00 60 1011.5
20260506114558 57 347 0.0 1.0 0.00 0.00 0.00 60 1011.5
20260506113053 58 340 0.0 1.0 0.00 0.00 0.00 59 1011.0
20260506111551 58 4 0.0 1.0 0.00 0.00 0.00 59 1010.7
20260506110049 58 350 0.0 1.0 0.00 0.00 0.00 59 1010.7
20260506104548 59 344 0.0 1.0 0.00 0.00 0.00 58 1010.4
20260506103044 59 15 0.0 2.0 0.00 0.00 0.00 59 1010.0
20260506101544 60 354 0.0 1.0 0.00 0.00 0.00 58 1009.7
20260506100042 60 349 0.0 1.0 0.00 0.00 0.00 57 1009.5
20260506094536 60 330 0.0 1.0 0.00 0.00 0.00 58 1009.4
20260506093032 61 354 0.0 1.0 0.00 0.00 0.00 57 1009.2
20260506091532 61 356 0.0 1.0 0.00 0.00 0.00 57 1009.2
20260506090030 61 356 0.0 1.0 0.00 0.00 0.00 57 1009.0
20260506084529 62 6 0.0 1.0 0.00 0.00 0.00 56 1009.0
20260506083027 62 9 0.0 1.0 0.00 0.00 0.00 57 1008.7
20260506081524 62 11 0.0 1.0 0.00 0.00 0.00 56 1008.8
20260506073021 63 26 0.0 1.0 0.00 0.00 0.00 53 1008.4
20260506071520 63 359 0.0 1.0 0.00 0.00 0.00 52 1008.4
20260506061514 64 13 0.0 1.0 0.00 0.00 0.00 55 1008.4
20260506044557 67 352 0.0 2.0 0.00 0.00 0.00 59 1008.1
20260506043052 68 338 0.0 2.0 0.00 0.00 0.00 58 1008.3
20260506041553 68 4 0.0 2.0 0.00 0.00 0.00 59 1008.1
20260506040044 69 360 0.0 1.0 0.00 0.00 0.00 59 1007.9
20260506034540 69 354 0.0 2.0 0.00 0.00 0.00 60 1007.2
20260506033037 70 352 0.0 1.0 0.00 0.00 0.00 62 1007.2
20260506031535 70 15 0.0 1.0 0.00 0.00 0.00 62 1006.8
20260506030046 71 345 0.0 1.0 0.00 0.00 0.00 62 1006.6
20260506024527 72 6 0.0 1.0 0.00 0.00 0.00 62 1006.6
20260506023016 72 4 0.0 2.0 0.00 0.00 0.00 62 1006.2
20260506021512 73 311 0.0 1.0 0.00 0.00 0.00 62 1005.8
20260506020007 74 346 0.0 1.0 0.00 0.00 0.00 62 1005.1
20260506014503 74 353 0.0 1.0 0.00 0.00 0.00 62 1004.9
20260506013100 75 359 0.0 1.0 0.00 0.00 0.00 62 1004.9
20260506011554 77 358 0.0 1.0 0.00 0.00 0.00 61 1004.3
20260506010053 78 352 0.0 1.0 0.00 0.00 0.00 60 1004.4
20260506004551 79 4 0.0 1.0 0.00 0.00 0.00 60 1003.9
20260506003045 80 5 0.0 1.0 0.00 0.00 0.00 59 1003.9
20260506001543 81 41 0.0 1.0 0.00 0.00 0.00 58 1003.7
20260506000035 82 347 0.0 1.0 0.00 0.00 0.00 57 1003.6
20260505234533 84 1 0.0 2.0 0.00 0.00 0.00 56 1003.2
20260505233027 85 356 0.0 1.0 0.00 0.00 0.00 53 1002.8
20260505231527 87 352 0.0 1.0 0.00 0.00 0.00 49 1002.7
20260505230021 89 228 0.0 1.0 0.00 0.00 0.00 49 1002.5
20260505224514 91 271 0.0 1.0 0.00 0.00 0.00 47 1002.0
20260505223009 94 288 0.0 1.0 0.00 0.00 0.00 46 1002.1
20260505221506 95 5 0.0 0.0 0.00 0.00 0.00 45 1001.9
20260505220101 96 326 0.0 1.0 0.00 0.00 0.00 46 1001.9
20260505214604 96 343 0.0 1.0 0.00 0.00 0.00 42 1001.9
20260505213051 94 268 0.0 1.0 0.00 0.00 0.00 46 1002.1
20260505211547 94 228 0.0 1.0 0.00 0.00 0.00 48 1002.3
20260505210042 94 197 0.0 1.0 0.00 0.00 0.00 49 1002.5
20260505204538 93 231 0.0 1.0 0.00 0.00 0.00 50 1002.7
20260505203039 92 236 0.0 1.0 0.00 0.00 0.00 49 1002.9
20260505201534 92 246 0.0 3.0 0.00 0.00 0.00 50 1002.9
20260505200024 92 161 0.0 3.0 0.00 0.00 0.00 53 1003.2
20260505194523 91 217 0.0 3.0 0.00 0.00 0.00 52 1003.2
20260505193016 91 200 0.0 1.0 0.00 0.00 0.00 54 1003.3
20260505191512 90 140 0.0 2.0 0.00 0.00 0.00 55 1003.2
20260505190007 89 171 0.0 2.0 0.00 0.00 0.00 56 1003.4
20260505184503 87 294 0.0 2.0 0.00 0.00 0.00 57 1003.4
20260505183058 86 194 0.0 2.0 0.00 0.00 0.00 57 1003.5
20260505181556 86 195 0.0 3.0 0.00 0.00 0.00 57 1003.7
20260505180054 85 170 0.0 1.0 0.00 0.00 0.00 57 1003.8
20260505174548 84 226 0.0 3.0 0.00 0.00 0.00 56 1003.9
20260505173044 83 158 0.0 2.0 0.00 0.00 0.00 55 1003.9
20260505171547 83 291 0.0 4.0 0.00 0.00 0.00 57 1003.8
20260505170038 84 184 0.0 2.0 0.00 0.00 0.00 56 1003.9
20260505164537 84 155 0.0 4.0 0.00 0.00 0.00 56 1004.0
20260505163031 83 214 0.0 2.0 0.00 0.00 0.00 52 1003.8
20260505161522 81 221 0.0 3.0 0.00 0.00 0.00 46 1003.7
20260505153010 78 210 0.0 3.0 0.00 0.00 0.00 40 1003.7
20260505151506 77 256 0.0 2.0 0.00 0.00 0.00 28 1003.9